Sivas, Turkey

6:48 AM +03 on May 30, 2017 (GMT +0300)
Sivas

Weather History for LTAR - June, 2013

Change the Weather History Date:

Saturday, June 15, 2013

  Actual Average Record
Temperature  
Mean Temperature 68 °F -  
Max Temperature 82 °F 78 °F - ()
Min Temperature 53 °F 51 °F - ()
Cooling Degree Days 3    
Growing Degree Days 18 (Base 50)    
Moisture  
Dew Point 49 °F    
Average Humidity 64    
Maximum Humidity 94    
Minimum Humidity 18    
Precipitation  
Precipitation 0.08 in 0.03 in - ()
Sea Level Pressure  
Sea Level Pressure 29.94 in    
Wind  
Wind Speed 7 mph ()    
Max Wind Speed 26 mph    
Max Gust Speed 25 mph    
Visibility 6.7 miles    
Events Rain , Thunderstorm    
T = Trace of Precipitation, MM = Missing Value Source: Averaged Metar Reports

Daily Weather History Graph

Daily Weather History Graph

Search for Another Location

Airport or City:

Trip Planner

Search our weather history database for the weather conditions in past years. The results will help you decide how hot, cold, wet, or windy it might be!

Date:

Astronomy

Jun. 15, 2013 Rise Set
Actual Time 5:03 AM EEST 8:02 PM EEST
Civil Twilight 4:30 AM EEST 8:35 PM EEST
Nautical Twilight 3:49 AM EEST 9:16 PM EEST
Astronomical Twilight 3:01 AM EEST 10:04 PM EEST
Moon 11:16 AM EEST (6/15) 11:57 PM EEST (6/15)
Length of Visible Light 16h 04m
Length of Day
14h 58m
Waxing Crescent, 36% of the Moon is Illuminated
Jun 15
Waxing Crescent
Jun 16
First Quarter
Jun 23
Full
Jun 30
Last Quarter
Jul 8
New

Hourly Weather History & Observations

Time (EEST) Temp. Dew Point Humidity Pressure Visibility Wind Dir Wind Speed Gust Speed Precip Events Conditions
1:50 AM 50.0 °F 46.4 °F 87% 29.95 in - North 4.6 mph - N/A   Clear
2:50 AM 50.0 °F 46.4 °F 87% 29.95 in - North 4.6 mph - N/A   Clear
3:50 AM 50.0 °F 46.4 °F 87% 29.95 in - Calm Calm - N/A   Clear
4:50 AM 48.2 °F 46.4 °F 93% 29.95 in - Calm Calm - N/A   Clear
5:50 AM 48.2 °F 46.4 °F 93% 29.95 in - ENE 1.2 mph - N/A   Clear
6:50 AM 55.4 °F 50.0 °F 82% 29.95 in - NNW 1.2 mph - N/A   Clear
7:50 AM 57.2 °F 48.2 °F 72% 29.95 in - NNW 8.1 mph - N/A   Clear
8:50 AM 60.8 °F 48.2 °F 63% 29.95 in - NNW 10.4 mph - N/A   Clear
9:00 AM 67 °F 50 °F 44%  in 9 mi Calm Calm - -  
9:50 AM 66.2 °F 48.2 °F 52% 29.95 in - North 5.8 mph - N/A   Clear
10:50 AM 68.0 °F 48.2 °F 49% 29.95 in - North 6.9 mph - N/A   Clear
11:50 AM 69.8 °F 50.0 °F 49% 29.92 in 6.2 mi NNW 10.4 mph - N/A   Partly Cloudy
12:50 PM 71.6 °F 48.2 °F 43% 29.92 in 6.2 mi NW 9.2 mph - N/A   Scattered Clouds
1:50 PM 73.4 °F 48.2 °F 41% 29.92 in 6.2 mi NNW 10.4 mph - N/A   Scattered Clouds
2:50 PM 71.6 °F 48.2 °F 43% 29.92 in 6.2 mi NNW 13.8 mph - N/A   Scattered Clouds
3:00 PM 81 °F 45 °F 18%  in 9 mi NNW 3.5 mph - -   Partly Cloudy
3:50 PM 73.4 °F 48.2 °F 41% 29.89 in 6.2 mi NNW 19.6 mph - N/A   Scattered Clouds
4:40 PM 69.8 °F 48.2 °F 46% 29.89 in 6.2 mi NNW 26.5 mph - N/A   Scattered Clouds
4:50 PM 69.8 °F 50.0 °F 49% 29.89 in 6.2 mi North 25.3 mph - N/A   Scattered Clouds
5:50 PM 62.6 °F 50.0 °F 63% 29.92 in 6.2 mi ENE 13.8 mph 25.3 mph N/A   Mostly Cloudy
6:50 PM 64.4 °F 48.2 °F 56% 29.92 in 6.2 mi NNW 17.3 mph - N/A   Mostly Cloudy
7:50 PM 62.6 °F 51.8 °F 68% 29.95 in 6.2 mi NNW 11.5 mph - N/A   Mostly Cloudy
7:57 PM 62.6 °F 51.8 °F 68% 29.95 in 6.2 mi NNW 11.5 mph - N/A Thunderstorm Thunderstorm
8:50 PM 59.0 °F 51.8 °F 77% 29.98 in 6.2 mi NNW 11.5 mph - N/A   Mostly Cloudy
9:00 PM 65 °F 53 °F 57%  in 9 mi North 4.6 mph - - Rain Light Rain Showers
9:50 PM 57.2 °F 51.8 °F 82% 29.98 in 6.2 mi North 18.4 mph - N/A   Mostly Cloudy
10:50 PM 55.4 °F 51.8 °F 88% 30.01 in 6.2 mi North 10.4 mph - N/A   Mostly Cloudy
11:50 PM 53.6 °F 51.8 °F 94% 29.98 in 6.2 mi North 10.4 mph - N/A   Scattered Clouds